Weather History for Indianapolis Mount Comfort, IN

Change the Weather History Date:

Sunday, January 12, 2014

  Actual Average (KEYE) Record (KEYE)
Temperature  
Mean Temperature 36 °F 28 °F  
Max Temperature 41 °F 35 °F 66 °F (2005)
Min Temperature 30 °F 21 °F -8 °F (1997)
Degree Days  
Heating Degree Days 30 37  
Month to date heating degree days 444  
Since 1 July heating degree days 2500  
Cooling Degree Days 0 0  
Month to date cooling degree days 0  
Year to date cooling degree days 0  
Moisture  
Dew Point 32 °F    
Average Humidity 88    
Maximum Humidity 100    
Minimum Humidity 70    
Precipitation  
Precipitation 0.00 in 0.09 in 1.48 in (2013)
Month to date precipitation 1.21  
Year to date precipitation 1.21  
Sea Level Pressure  
Sea Level Pressure 29.91 in    
Wind  
Wind Speed 12 mph (SSW)    
Max Wind Speed 21 mph    
Max Gust Speed 28 mph    
Visibility 10 miles    
Events      
T = Trace of Precipitation, MM = Missing Value Source: NWS Daily Summary

Daily Weather History Graph

Daily Weather History Graph

Search for Another Location

Airport:

Trip Planner

Search our weather history database for the weather conditions in past years. The results will help you decide how hot, cold, wet, or windy it might be!

Date:

Astronomy

Jan. 12, 2014 Rise Set
Actual Time 8:04 AM EST 5:40 PM EST
Civil Twilight 7:34 AM EST 6:09 PM EST
Nautical Twilight 7:00 AM EST 6:43 PM EST
Astronomical Twilight 6:28 AM EST 7:15 PM EST
Moon 3:07 PM EST (1/12) 5:02 AM EST (1/12)
Length of Visible Light 10h 35m
Length of Day
9h 35m
Waxing Gibbous, 89% of the Moon is Illuminated
Jan 12
Waxing Gibbous
Jan 15
Full
Jan 24
Last Quarter
Jan 30
New
Feb 6
First Quarter

Hourly Weather History & Observations

Time (EST) Temp. Windchill Dew Point Humidity Pressure Visibility Wind Dir Wind Speed Gust Speed Precip Events Conditions
12:15 AM 35.6 °F 26.6 °F 35.6 °F 100% 29.80 in 7.0 mi West 13.8 mph 18.4 mph N/A   Overcast
12:34 AM 35.6 °F 24.5 °F 35.6 °F 100% 29.80 in 10.0 mi West 20.7 mph 26.5 mph N/A   Overcast
12:55 AM 35.6 °F 25.5 °F 33.8 °F 93% 29.81 in 10.0 mi NW 17.3 mph 23.0 mph N/A   Overcast
1:14 AM 33.8 °F 23.2 °F 32.0 °F 93% 29.82 in 10.0 mi WNW 17.3 mph 25.3 mph N/A   Overcast
1:35 AM 33.8 °F 23.5 °F 32.0 °F 93% 29.82 in 10.0 mi WNW 16.1 mph 23.0 mph N/A   Overcast
1:54 AM 32.0 °F 21.2 °F 32.0 °F 100% 29.83 in 10.0 mi WNW 16.1 mph 27.6 mph N/A   Overcast
2:14 AM 32.0 °F 22.1 °F 32.0 °F 100% 29.84 in 10.0 mi WNW 13.8 mph - N/A   Overcast
2:35 AM 32.0 °F 23.6 °F 30.2 °F 93% 29.86 in 10.0 mi West 10.4 mph - N/A   Overcast
2:54 AM 32.0 °F 23.0 °F 30.2 °F 93% 29.86 in 10.0 mi WNW 11.5 mph 16.1 mph N/A   Overcast
3:14 AM 32.0 °F 23.0 °F 30.2 °F 93% 29.87 in 10.0 mi West 11.5 mph - N/A   Overcast
3:35 AM 32.0 °F 24.2 °F 30.2 °F 93% 29.88 in 10.0 mi NW 9.2 mph - N/A   Overcast
3:54 AM 32.0 °F 25.6 °F 30.2 °F 93% 29.88 in 10.0 mi WNW 6.9 mph - N/A   Overcast
4:14 AM 32.0 °F 23.6 °F 30.2 °F 93% 29.89 in 10.0 mi WNW 10.4 mph - N/A   Overcast
4:35 AM 30.2 °F 21.3 °F 28.4 °F 93% 29.89 in 10.0 mi WNW 10.4 mph - N/A   Overcast
4:54 AM 30.2 °F 20.2 °F 30.2 °F 100% 29.90 in 10.0 mi West 12.7 mph - N/A   Overcast
5:14 AM 30.2 °F 21.3 °F 28.4 °F 93% 29.91 in 10.0 mi WNW 10.4 mph - N/A   Overcast
5:35 AM 30.2 °F 23.4 °F 28.4 °F 93% 29.91 in 10.0 mi West 6.9 mph - N/A   Overcast
5:54 AM 30.2 °F 23.4 °F 30.2 °F 100% 29.92 in 10.0 mi West 6.9 mph - N/A   Overcast
6:15 AM 30.2 °F 21.9 °F 30.2 °F 100% 29.93 in 10.0 mi West 9.2 mph - N/A   Overcast
6:34 AM 30.2 °F 24.3 °F 28.4 °F 93% 29.92 in 10.0 mi West 5.8 mph - N/A   Overcast
6:54 AM 30.2 °F 25.4 °F 30.2 °F 100% 29.94 in 10.0 mi West 4.6 mph - N/A   Overcast
7:15 AM 30.2 °F 23.4 °F 30.2 °F 100% 29.95 in 10.0 mi West 6.9 mph - N/A   Overcast
7:34 AM 30.2 °F 22.6 °F 30.2 °F 100% 29.96 in 10.0 mi West 8.1 mph - N/A   Overcast
7:54 AM 30.2 °F 22.6 °F 30.2 °F 100% 29.98 in 10.0 mi WSW 8.1 mph - N/A   Overcast
8:15 AM 30.2 °F 24.3 °F 30.2 °F 100% 29.99 in 10.0 mi WSW 5.8 mph - N/A   Overcast
8:34 AM 30.2 °F 23.4 °F 30.2 °F 100% 29.99 in 10.0 mi SSW 6.9 mph - N/A   Overcast
8:54 AM 30.2 °F 21.9 °F 30.2 °F 100% 30.00 in 10.0 mi SW 9.2 mph - N/A   Overcast
9:15 AM 30.2 °F 22.6 °F 30.2 °F 100% 30.01 in 7.0 mi SSW 8.1 mph - N/A   Overcast
9:34 AM 32.0 °F 24.2 °F 32.0 °F 100% 30.01 in 7.0 mi SW 9.2 mph - N/A   Overcast
9:54 AM 32.0 °F 24.2 °F 32.0 °F 100% 30.02 in 7.0 mi SW 9.2 mph - N/A   Overcast
10:15 AM 32.0 °F 23.0 °F 32.0 °F 100% 30.03 in 7.0 mi SSW 11.5 mph - N/A   Overcast
10:34 AM 32.0 °F 23.6 °F 32.0 °F 100% 30.03 in 7.0 mi SW 10.4 mph - N/A   Overcast
10:55 AM 32.0 °F 23.6 °F 30.2 °F 93% 30.03 in 7.0 mi South 10.4 mph - N/A   Overcast
11:14 AM 32.0 °F 24.8 °F 32.0 °F 100% 30.02 in 7.0 mi SSW 8.1 mph - N/A   Overcast
11:34 AM 32.0 °F 23.6 °F 32.0 °F 100% 30.02 in 7.0 mi SSW 10.4 mph - N/A   Overcast
11:55 AM 32.0 °F 23.6 °F 32.0 °F 100% 30.01 in 7.0 mi South 10.4 mph - N/A   Overcast
12:14 PM 33.8 °F 25.8 °F 32.0 °F 93% 29.99 in 7.0 mi South 10.4 mph - N/A   Overcast
12:34 PM 33.8 °F 25.8 °F 32.0 °F 93% 29.97 in 7.0 mi South 10.4 mph - N/A   Overcast
12:55 PM 33.8 °F 24.3 °F 32.0 °F 93% 29.96 in 10.0 mi South 13.8 mph 18.4 mph N/A   Mostly Cloudy
1:14 PM 35.6 °F 27.5 °F 32.0 °F 87% 29.96 in 10.0 mi South 11.5 mph 17.3 mph N/A   Scattered Clouds
1:34 PM 35.6 °F 27.1 °F 32.0 °F 87% 29.94 in 10.0 mi South 12.7 mph - N/A   Clear
1:55 PM 37.4 °F 29.3 °F 33.8 °F 87% 29.93 in 10.0 mi South 12.7 mph 16.1 mph N/A   Clear
2:14 PM 37.4 °F 30.3 °F 33.8 °F 87% 29.93 in 10.0 mi South 10.4 mph - N/A   Clear
2:34 PM 37.4 °F 29.3 °F 33.8 °F 87% 29.93 in 10.0 mi South 12.7 mph - N/A   Clear
2:55 PM 39.2 °F 33.0 °F 33.8 °F 81% 29.92 in 10.0 mi South 9.2 mph 17.3 mph N/A   Clear
3:14 PM 39.2 °F 31.6 °F 33.8 °F 81% 29.92 in 10.0 mi South 12.7 mph - N/A   Clear
3:34 PM 39.2 °F 32.5 °F 35.6 °F 87% 29.92 in 10.0 mi South 10.4 mph - N/A   Clear
3:55 PM 41.0 °F 34.3 °F 35.6 °F 81% 29.91 in 10.0 mi South 11.5 mph 16.1 mph N/A   Clear
4:14 PM 41.0 °F 34.3 °F 35.6 °F 81% 29.91 in 10.0 mi South 11.5 mph 16.1 mph N/A   Clear
4:34 PM 41.0 °F 33.9 °F 33.8 °F 76% 29.90 in 10.0 mi South 12.7 mph 17.3 mph N/A   Clear
4:55 PM 41.0 °F 33.5 °F 33.8 °F 76% 29.89 in 10.0 mi South 13.8 mph - N/A   Clear
5:14 PM 41.0 °F 33.5 °F 33.8 °F 76% 29.89 in 10.0 mi South 13.8 mph - N/A   Clear
5:34 PM 41.0 °F 33.9 °F 33.8 °F 76% 29.89 in 10.0 mi South 12.7 mph - N/A   Clear
5:55 PM 41.0 °F 34.3 °F 33.8 °F 76% 29.89 in 10.0 mi South 11.5 mph - N/A   Clear
6:14 PM 41.0 °F 34.7 °F 33.8 °F 76% 29.88 in 10.0 mi South 10.4 mph 18.4 mph N/A   Clear
6:34 PM 41.0 °F 33.5 °F 33.8 °F 76% 29.88 in 10.0 mi South 13.8 mph 19.6 mph N/A   Clear
6:55 PM 39.2 °F 31.6 °F 33.8 °F 81% 29.89 in 10.0 mi South 12.7 mph 19.6 mph N/A   Clear
7:14 PM 39.2 °F 31.6 °F 33.8 °F 81% 29.88 in 10.0 mi South 12.7 mph 19.6 mph N/A   Clear
7:34 PM 41.0 °F 33.5 °F 32.0 °F 70% 29.88 in 10.0 mi South 13.8 mph - N/A   Clear
7:55 PM 39.2 °F 30.8 °F 32.0 °F 75% 29.87 in 10.0 mi South 15.0 mph 19.6 mph N/A   Clear
8:14 PM 41.0 °F 33.1 °F 32.0 °F 70% 29.85 in 10.0 mi South 15.0 mph 21.9 mph N/A   Clear
8:34 PM 41.0 °F 32.2 °F 32.0 °F 70% 29.84 in 10.0 mi South 18.4 mph 23.0 mph N/A   Clear
8:55 PM 41.0 °F 32.5 °F 32.0 °F 70% 29.83 in 10.0 mi South 17.3 mph 21.9 mph N/A   Clear
9:14 PM 41.0 °F 33.1 °F 32.0 °F 70% 29.82 in 10.0 mi South 15.0 mph 20.7 mph N/A   Clear
9:34 PM 41.0 °F 32.8 °F 32.0 °F 70% 29.82 in 10.0 mi South 16.1 mph 21.9 mph N/A   Clear
9:55 PM 39.2 °F 32.0 °F 32.0 °F 75% 29.83 in 10.0 mi South 11.5 mph 20.7 mph N/A   Clear
10:14 PM 39.2 °F 32.5 °F 32.0 °F 75% 29.83 in 10.0 mi South 10.4 mph - N/A   Clear
10:34 PM 39.2 °F 33.0 °F 32.0 °F 75% 29.83 in 10.0 mi South 9.2 mph 17.3 mph N/A   Clear
10:54 PM 41.0 °F 34.3 °F 32.0 °F 70% 29.84 in 10.0 mi South 11.5 mph - N/A   Clear
11:14 PM 39.2 °F 32.0 °F 32.0 °F 75% 29.83 in 10.0 mi South 11.5 mph - N/A   Clear
11:35 PM 39.2 °F 33.0 °F 32.0 °F 75% 29.82 in 10.0 mi South 9.2 mph - N/A   Clear
11:54 PM 39.2 °F 33.6 °F 32.0 °F 75% 29.82 in 10.0 mi South 8.1 mph - N/A   Clear